EZY9179 LOWW-LGSK

Flight info

Callsign EZY9179
Flight time 1h 37m
Altitude 39000
Route ARSIN1C/29 ARSIN DCT NALOX DCT BABIT DCT RAXAD DCT MAKED UL617 IBIDI
Aircraft A20N/M-SDE2E3FGHIRWXY/LB1

Departure

Time 2026-04-25 18:52
Airport Vienna International Airport (LOWW)

Arrival

Time 2026-04-25 20:29
Airport Skiathos Island National Airport (LGSK)
Time Latitude Longitude Altitude Speed Heading
2026-04-25 18:19 48.11985 16.55589 609 ft 0 kts 97°
2026-04-25 18:39 48.11988 16.55560 621 ft 4 kts 108°
2026-04-25 18:39 48.12000 16.55525 615 ft 4 kts 138°
2026-04-25 18:40 48.12019 16.55513 620 ft 2 kts 205°
2026-04-25 18:40 48.12024 16.55517 617 ft 0 kts 206°
2026-04-25 18:44 48.12023 16.55516 617 ft 1 kts 206°
2026-04-25 18:44 48.11988 16.55490 619 ft 9 kts 206°
2026-04-25 18:44 48.11921 16.55446 614 ft 12 kts 193°
2026-04-25 18:45 48.11835 16.55430 621 ft 12 kts 175°
2026-04-25 18:45 48.11778 16.55533 611 ft 15 kts 116°
2026-04-25 18:45 48.11728 16.55683 616 ft 17 kts 116°
2026-04-25 18:45 48.11670 16.55857 622 ft 20 kts 116°
2026-04-25 18:46 48.11608 16.56055 612 ft 22 kts 115°
2026-04-25 18:46 48.11540 16.56260 619 ft 19 kts 115°
2026-04-25 18:46 48.11482 16.56442 621 ft 21 kts 116°
2026-04-25 18:46 48.11425 16.56618 616 ft 19 kts 115°
2026-04-25 18:47 48.11364 16.56805 622 ft 21 kts 116°
2026-04-25 18:47 48.11300 16.57005 615 ft 22 kts 116°
2026-04-25 18:47 48.11242 16.57179 625 ft 16 kts 116°
2026-04-25 18:47 48.11188 16.57338 622 ft 18 kts 116°
2026-04-25 18:48 48.11131 16.57516 621 ft 17 kts 115°
2026-04-25 18:48 48.11088 16.57634 614 ft 12 kts 136°
2026-04-25 18:48 48.11032 16.57639 609 ft 5 kts 203°
2026-04-25 18:48 48.11028 16.57637 609 ft 0 kts 203°
2026-04-25 18:50 48.10986 16.57608 609 ft 11 kts 205°
2026-04-25 18:50 48.10924 16.57527 614 ft 13 kts 264°
2026-04-25 18:50 48.10956 16.57401 619 ft 14 kts 296°
2026-04-25 18:51 48.10999 16.57271 622 ft 36 kts 296°
2026-04-25 18:51 48.11115 16.56907 616 ft 78 kts 296°
2026-04-25 18:51 48.11560 16.55542 616 ft 139 kts 296°
2026-04-25 18:51 48.12033 16.54084 688 ft 165 kts 295°
2026-04-25 18:52 48.12469 16.52581 1336 ft 153 kts 281°
2026-04-25 18:52 48.12283 16.51090 2003 ft 149 kts 243°
2026-04-25 18:52 48.11437 16.50020 2401 ft 171 kts 210°
2026-04-25 18:52 48.10314 16.49396 2836 ft 177 kts 211°
2026-04-25 18:53 48.09206 16.48550 3378 ft 180 kts 214°
2026-04-25 18:53 48.08074 16.47680 3930 ft 193 kts 205°
2026-04-25 18:53 48.06662 16.47343 4354 ft 219 kts 180°
2026-04-25 18:53 48.05072 16.47616 4775 ft 242 kts 174°
2026-04-25 18:54 48.01427 16.48335 5752 ft 283 kts 174°
2026-04-25 18:54 47.99453 16.48716 6614 ft 287 kts 174°
2026-04-25 18:54 47.97470 16.48871 7551 ft 285 kts 188°
2026-04-25 18:55 47.95566 16.48125 8447 ft 283 kts 208°
2026-04-25 18:55 47.93816 16.46764 9336 ft 285 kts 211°
2026-04-25 18:55 47.92057 16.45373 10201 ft 288 kts 212°
2026-04-25 18:55 47.90215 16.43964 10627 ft 310 kts 206°
2026-04-25 18:56 47.88040 16.43292 10888 ft 340 kts 183°
2026-04-25 18:56 47.85667 16.43964 11463 ft 356 kts 160°
2026-04-25 18:56 47.83533 16.45895 12251 ft 363 kts 143°
2026-04-25 18:56 47.81586 16.48352 12980 ft 369 kts 141°
2026-04-25 18:57 47.79628 16.50852 13706 ft 374 kts 142°
2026-04-25 18:57 47.77579 16.53292 14381 ft 378 kts 144°
2026-04-25 18:57 47.75467 16.55654 15047 ft 382 kts 146°
2026-04-25 18:57 47.74008 16.57229 15473 ft 385 kts 146°
2026-04-25 18:58 47.71091 16.60315 16320 ft 391 kts 147°
2026-04-25 18:58 47.66604 16.65021 17628 ft 399 kts 147°
2026-04-25 18:58 47.64322 16.67412 18276 ft 403 kts 147°
2026-04-25 18:59 47.59744 16.72207 19448 ft 407 kts 148°
2026-04-25 18:59 47.54607 16.75470 20605 ft 402 kts 173°
2026-04-25 19:00 47.49039 16.76120 21735 ft 403 kts 180°
2026-04-25 19:00 47.46228 16.76378 22297 ft 406 kts 180°
2026-04-25 19:01 47.40545 16.76917 23353 ft 412 kts 180°
2026-04-25 19:01 47.37666 16.77193 23825 ft 416 kts 180°
2026-04-25 19:01 47.34767 16.77471 24249 ft 419 kts 180°
2026-04-25 19:01 47.31857 16.77750 24693 ft 421 kts 180°
2026-04-25 19:02 47.25971 16.78312 25531 ft 427 kts 181°
2026-04-25 19:02 47.23037 16.78591 25957 ft 429 kts 181°
2026-04-25 19:02 47.20038 16.78877 26343 ft 432 kts 181°
2026-04-25 19:03 47.15033 16.79352 27014 ft 435 kts 181°
2026-04-25 19:03 47.10979 16.79736 27525 ft 438 kts 181°
2026-04-25 19:03 47.07925 16.80026 27903 ft 441 kts 181°
2026-04-25 19:04 47.01767 16.80608 28615 ft 445 kts 181°
2026-04-25 19:04 46.98671 16.80900 28960 ft 447 kts 181°
2026-04-25 19:05 46.92436 16.81653 29601 ft 456 kts 174°
2026-04-25 19:05 46.86487 16.85303 30167 ft 476 kts 149°
2026-04-25 19:05 46.83976 16.88409 30429 ft 485 kts 136°
2026-04-25 19:06 46.81869 16.92296 30687 ft 492 kts 125°
2026-04-25 19:06 46.78482 17.01045 31275 ft 496 kts 121°
2026-04-25 19:06 46.76773 17.05422 31665 ft 496 kts 122°
2026-04-25 19:07 46.73199 17.13998 32379 ft 494 kts 124°
2026-04-25 19:07 46.71371 17.18237 32731 ft 494 kts 124°
2026-04-25 19:08 46.67696 17.26686 33374 ft 493 kts 124°
2026-04-25 19:08 46.65859 17.30899 33692 ft 493 kts 124°
2026-04-25 19:09 46.60348 17.43511 34556 ft 491 kts 124°
2026-04-25 19:09 46.59135 17.46281 34732 ft 490 kts 124°
2026-04-25 19:09 46.54898 17.55929 35319 ft 489 kts 125°
2026-04-25 19:10 46.53067 17.60090 35564 ft 489 kts 125°
2026-04-25 19:10 46.51235 17.64246 35777 ft 488 kts 125°
2026-04-25 19:10 46.49402 17.68396 36021 ft 488 kts 125°
2026-04-25 19:10 46.47572 17.72537 36232 ft 487 kts 125°
2026-04-25 19:11 46.45739 17.76676 36459 ft 486 kts 125°
2026-04-25 19:11 46.43908 17.80805 36680 ft 486 kts 125°
2026-04-25 19:11 46.42076 17.84929 36883 ft 485 kts 125°
2026-04-25 19:11 46.40250 17.89035 37085 ft 485 kts 125°
2026-04-25 19:12 46.38444 17.93090 37270 ft 484 kts 125°
2026-04-25 19:12 46.36618 17.97185 37461 ft 484 kts 125°
2026-04-25 19:12 46.34790 18.01276 37637 ft 483 kts 125°
2026-04-25 19:12 46.32968 18.05349 37807 ft 483 kts 125°
2026-04-25 19:13 46.31146 18.09416 37975 ft 482 kts 125°
2026-04-25 19:13 46.29320 18.13487 38133 ft 482 kts 125°
2026-04-25 19:13 46.27493 18.17552 38283 ft 482 kts 125°
2026-04-25 19:13 46.25665 18.21616 38413 ft 482 kts 125°
2026-04-25 19:14 46.23838 18.25670 38561 ft 482 kts 125°
2026-04-25 19:14 46.20178 18.33774 38798 ft 481 kts 125°
2026-04-25 19:14 46.18347 18.37819 38907 ft 481 kts 125°
2026-04-25 19:15 46.16510 18.41873 38960 ft 481 kts 125°
2026-04-25 19:15 46.12836 18.49963 38984 ft 481 kts 125°
2026-04-25 19:16 46.09187 18.57975 38977 ft 481 kts 125°
2026-04-25 19:16 46.05503 18.66040 38976 ft 482 kts 125°
2026-04-25 19:17 46.01838 18.74040 38970 ft 482 kts 125°
2026-04-25 19:17 45.98141 18.82088 38972 ft 482 kts 125°
2026-04-25 19:18 45.94273 18.89854 38973 ft 480 kts 134°
2026-04-25 19:18 45.89480 18.96449 38973 ft 475 kts 146°
2026-04-25 19:19 45.84064 19.01833 38969 ft 473 kts 149°
2026-04-25 19:19 45.78666 19.07119 38973 ft 474 kts 149°
2026-04-25 19:20 45.73221 19.12458 38975 ft 474 kts 149°
2026-04-25 19:20 45.67772 19.17787 38984 ft 475 kts 149°
2026-04-25 19:21 45.62320 19.23098 38981 ft 475 kts 149°
2026-04-25 19:21 45.54109 19.31074 38987 ft 476 kts 149°
2026-04-25 19:22 45.48631 19.36379 38989 ft 476 kts 149°
2026-04-25 19:23 45.40419 19.44309 38984 ft 474 kts 149°
2026-04-25 19:23 45.32243 19.52174 38987 ft 475 kts 149°
2026-04-25 19:24 45.26771 19.57424 38988 ft 475 kts 149°
2026-04-25 19:25 45.15783 19.67926 38996 ft 476 kts 149°
2026-04-25 19:25 45.10294 19.73154 38994 ft 475 kts 149°
2026-04-25 19:26 45.04846 19.78332 38991 ft 475 kts 149°
2026-04-25 19:26 44.99356 19.83536 38990 ft 475 kts 149°
2026-04-25 19:27 44.95685 19.87009 38995 ft 474 kts 149°
2026-04-25 19:27 44.88366 19.93918 38993 ft 474 kts 149°
2026-04-25 19:28 44.82878 19.99084 38988 ft 474 kts 149°
2026-04-25 19:28 44.77428 20.04203 38992 ft 474 kts 149°
2026-04-25 19:29 44.71941 20.09344 38992 ft 474 kts 149°
2026-04-25 19:29 44.66455 20.14473 38991 ft 473 kts 149°
2026-04-25 19:30 44.60988 20.19572 38991 ft 473 kts 149°
2026-04-25 19:30 44.55467 20.24709 38996 ft 473 kts 149°
2026-04-25 19:31 44.50010 20.29776 39003 ft 473 kts 149°
2026-04-25 19:31 44.44556 20.34828 39001 ft 473 kts 149°
2026-04-25 19:32 44.39063 20.39904 39009 ft 473 kts 149°
2026-04-25 19:32 44.35383 20.43299 39009 ft 473 kts 148°
2026-04-25 19:33 44.28098 20.50003 39011 ft 473 kts 148°
2026-04-25 19:33 44.22606 20.55044 39012 ft 473 kts 148°
2026-04-25 19:34 44.17109 20.60079 39009 ft 472 kts 148°
2026-04-25 19:34 44.11650 20.65067 39016 ft 472 kts 148°
2026-04-25 19:35 44.06151 20.70080 39020 ft 472 kts 148°
2026-04-25 19:35 44.00664 20.75071 39016 ft 471 kts 148°
2026-04-25 19:36 43.95176 20.80052 39020 ft 471 kts 148°
2026-04-25 19:36 43.89687 20.85023 39026 ft 471 kts 148°
2026-04-25 19:37 43.84202 20.89979 39022 ft 470 kts 148°
2026-04-25 19:37 43.78723 20.94918 39014 ft 469 kts 148°
2026-04-25 19:38 43.73284 20.99811 39015 ft 469 kts 148°
2026-04-25 19:38 43.67812 21.04723 39012 ft 468 kts 148°
2026-04-25 19:39 43.62347 21.09617 39005 ft 467 kts 148°
2026-04-25 19:39 43.57811 21.13672 39008 ft 467 kts 148°
2026-04-25 19:40 43.52356 21.18537 39014 ft 467 kts 148°
2026-04-25 19:40 43.46898 21.23395 39016 ft 467 kts 148°
2026-04-25 19:41 43.41436 21.28245 39020 ft 467 kts 148°
2026-04-25 19:41 43.36894 21.32271 39023 ft 467 kts 148°
2026-04-25 19:42 43.30510 21.37918 39026 ft 467 kts 148°
2026-04-25 19:42 43.25074 21.42714 39024 ft 467 kts 148°
2026-04-25 19:43 43.19607 21.47527 39025 ft 467 kts 148°
2026-04-25 19:43 43.14137 21.52333 39038 ft 467 kts 148°
2026-04-25 19:44 43.08663 21.57131 39033 ft 467 kts 148°
2026-04-25 19:44 43.03189 21.61921 39037 ft 467 kts 148°
2026-04-25 19:45 42.97718 21.66696 39028 ft 466 kts 148°
2026-04-25 19:45 42.92288 21.71426 39018 ft 466 kts 147°
2026-04-25 19:46 42.86818 21.76181 39024 ft 465 kts 147°
2026-04-25 19:46 42.81350 21.80923 39029 ft 465 kts 147°
2026-04-25 19:47 42.75886 21.85652 39033 ft 465 kts 147°
2026-04-25 19:47 42.70424 21.90369 39039 ft 464 kts 147°
2026-04-25 19:48 42.65030 21.95018 39027 ft 464 kts 147°
2026-04-25 19:48 42.59581 21.99704 39029 ft 463 kts 147°
2026-04-25 19:49 42.55019 22.03620 39039 ft 463 kts 147°
2026-04-25 19:49 42.48693 22.09039 39035 ft 462 kts 147°
2026-04-25 19:50 42.40533 22.16013 39033 ft 461 kts 147°
2026-04-25 19:51 42.35088 22.20614 39027 ft 461 kts 150°
2026-04-25 19:51 42.29273 22.24154 39023 ft 461 kts 162°
2026-04-25 19:52 42.23040 22.26140 39018 ft 460 kts 171°
2026-04-25 19:52 42.16727 22.27599 39012 ft 460 kts 170°
2026-04-25 19:53 42.10413 22.29087 39012 ft 460 kts 170°
2026-04-25 19:53 42.04094 22.30573 39009 ft 461 kts 170°
2026-04-25 19:54 41.97777 22.32055 39003 ft 461 kts 170°
2026-04-25 19:54 41.91447 22.33536 39012 ft 461 kts 170°
2026-04-25 19:55 41.85166 22.35001 39006 ft 461 kts 170°
2026-04-25 19:55 41.78832 22.36477 39005 ft 462 kts 170°
2026-04-25 19:56 41.72489 22.37952 39015 ft 462 kts 170°
2026-04-25 19:56 41.66142 22.39425 39016 ft 463 kts 170°
2026-04-25 19:57 41.59809 22.40892 39003 ft 461 kts 170°
2026-04-25 19:57 41.53484 22.42353 39008 ft 461 kts 169°
2026-04-25 19:58 41.47172 22.43809 39015 ft 461 kts 169°
2026-04-25 19:58 41.40897 22.45254 39016 ft 461 kts 169°
2026-04-25 19:59 41.34581 22.46705 39011 ft 461 kts 169°
2026-04-25 19:59 41.28261 22.48154 39014 ft 461 kts 169°
2026-04-25 20:00 41.21938 22.49601 39019 ft 461 kts 169°
2026-04-25 20:00 41.15631 22.51207 39017 ft 461 kts 164°
2026-04-25 20:01 41.06772 22.55981 39009 ft 458 kts 149°
2026-04-25 20:01 41.01177 22.60008 39019 ft 458 kts 150°
2026-04-25 20:02 40.95600 22.63980 39020 ft 458 kts 150°
2026-04-25 20:02 40.92788 22.65974 38900 ft 458 kts 150°
2026-04-25 20:02 40.89985 22.67959 38660 ft 456 kts 149°
2026-04-25 20:03 40.87190 22.69937 38379 ft 455 kts 149°
2026-04-25 20:03 40.84395 22.71913 38012 ft 456 kts 149°
2026-04-25 20:03 40.81585 22.73899 37277 ft 460 kts 149°
2026-04-25 20:03 40.78754 22.75898 36567 ft 461 kts 149°
2026-04-25 20:04 40.76100 22.77769 35897 ft 462 kts 149°
2026-04-25 20:04 40.73262 22.79767 35167 ft 463 kts 149°
2026-04-25 20:04 40.70417 22.81769 34419 ft 464 kts 149°
2026-04-25 20:04 40.67561 22.83777 33593 ft 466 kts 149°
2026-04-25 20:05 40.64704 22.85784 32849 ft 465 kts 149°
2026-04-25 20:05 40.61840 22.87794 32039 ft 466 kts 149°
2026-04-25 20:05 40.58980 22.89800 31216 ft 467 kts 149°
2026-04-25 20:05 40.56120 22.91802 30681 ft 462 kts 149°
2026-04-25 20:06 40.53299 22.93774 30127 ft 457 kts 149°
2026-04-25 20:06 40.50496 22.95733 29434 ft 454 kts 149°
2026-04-25 20:06 40.47731 22.97663 28913 ft 447 kts 149°
2026-04-25 20:06 40.44954 22.99452 28335 ft 444 kts 155°
2026-04-25 20:07 40.42086 23.00902 27762 ft 439 kts 157°
2026-04-25 20:07 40.39236 23.02314 27193 ft 435 kts 157°
2026-04-25 20:07 40.36418 23.03715 26622 ft 431 kts 157°
2026-04-25 20:07 40.33618 23.05109 26060 ft 428 kts 157°
2026-04-25 20:08 40.30881 23.06472 25507 ft 425 kts 157°
2026-04-25 20:08 40.28123 23.07844 24939 ft 422 kts 157°
2026-04-25 20:08 40.25379 23.09208 24350 ft 421 kts 158°
2026-04-25 20:08 40.22656 23.10560 23789 ft 419 kts 158°
2026-04-25 20:09 40.19940 23.11907 23223 ft 415 kts 158°
2026-04-25 20:09 40.17254 23.13237 22692 ft 410 kts 158°
2026-04-25 20:09 40.14597 23.14550 22142 ft 406 kts 158°
2026-04-25 20:09 40.11969 23.15849 21621 ft 402 kts 158°
2026-04-25 20:10 40.09368 23.17134 21090 ft 398 kts 157°
2026-04-25 20:10 40.06790 23.18406 20569 ft 395 kts 157°
2026-04-25 20:10 40.04236 23.19665 20055 ft 391 kts 157°
2026-04-25 20:10 40.01694 23.20918 19535 ft 389 kts 157°
2026-04-25 20:11 39.99168 23.22162 19017 ft 386 kts 157°
2026-04-25 20:11 39.96660 23.23395 18509 ft 384 kts 157°
2026-04-25 20:11 39.94162 23.24624 17927 ft 383 kts 157°
2026-04-25 20:11 39.91686 23.25841 17431 ft 379 kts 157°
2026-04-25 20:12 39.89227 23.27048 16893 ft 376 kts 157°
2026-04-25 20:12 39.86814 23.28233 16370 ft 373 kts 157°
2026-04-25 20:12 39.84389 23.29423 15835 ft 371 kts 157°
2026-04-25 20:12 39.83570 23.29824 15661 ft 370 kts 157°
2026-04-25 20:13 39.79574 23.31781 14774 ft 367 kts 158°
2026-04-25 20:13 39.77185 23.32950 14239 ft 366 kts 158°
2026-04-25 20:13 39.74815 23.34109 13708 ft 363 kts 158°
2026-04-25 20:13 39.72455 23.35262 13185 ft 360 kts 158°
2026-04-25 20:14 39.70123 23.36400 12670 ft 356 kts 158°
2026-04-25 20:14 39.67810 23.37527 12168 ft 353 kts 158°
2026-04-25 20:14 39.65518 23.38643 11666 ft 350 kts 158°
2026-04-25 20:14 39.63245 23.39749 11149 ft 348 kts 159°
2026-04-25 20:15 39.60985 23.40848 10651 ft 345 kts 159°
2026-04-25 20:15 39.58791 23.41915 10406 ft 335 kts 159°
2026-04-25 20:15 39.56652 23.42952 10278 ft 322 kts 159°
2026-04-25 20:15 39.54603 23.43945 10162 ft 308 kts 159°
2026-04-25 20:16 39.52634 23.44899 9997 ft 297 kts 159°
2026-04-25 20:16 39.50708 23.45833 9605 ft 295 kts 159°
2026-04-25 20:16 39.48797 23.46759 9229 ft 291 kts 159°
2026-04-25 20:16 39.46907 23.47674 8859 ft 288 kts 159°
2026-04-25 20:17 39.45037 23.48578 8502 ft 285 kts 159°
2026-04-25 20:17 39.43183 23.49475 8136 ft 283 kts 159°
2026-04-25 20:17 39.41347 23.50362 7784 ft 280 kts 158°
2026-04-25 20:17 39.39529 23.51241 7435 ft 278 kts 158°
2026-04-25 20:18 39.37724 23.52114 7076 ft 276 kts 158°
2026-04-25 20:18 39.35955 23.52970 6731 ft 274 kts 158°
2026-04-25 20:18 39.34172 23.53831 6391 ft 273 kts 158°
2026-04-25 20:18 39.32403 23.54685 6046 ft 270 kts 158°
2026-04-25 20:19 39.30643 23.55534 5694 ft 268 kts 158°
2026-04-25 20:19 39.28898 23.56375 5370 ft 266 kts 158°
2026-04-25 20:19 39.27165 23.57210 5030 ft 265 kts 158°
2026-04-25 20:19 39.25443 23.58039 4689 ft 263 kts 158°
2026-04-25 20:20 39.23729 23.58865 4339 ft 262 kts 158°
2026-04-25 20:20 39.22047 23.59674 4198 ft 252 kts 158°
2026-04-25 20:20 39.20452 23.60440 4060 ft 244 kts 158°
2026-04-25 20:20 39.18886 23.61145 4031 ft 233 kts 167°
2026-04-25 20:21 39.17311 23.61063 3933 ft 223 kts 199°
2026-04-25 20:21 39.15953 23.60216 3805 ft 214 kts 207°
2026-04-25 20:21 39.14640 23.59341 3563 ft 211 kts 207°
2026-04-25 20:21 39.13341 23.58488 3310 ft 209 kts 207°
2026-04-25 20:22 39.12052 23.57652 3096 ft 204 kts 206°
2026-04-25 20:22 39.11629 23.57379 3046 ft 199 kts 206°
2026-04-25 20:22 39.09644 23.56081 2693 ft 186 kts 208°
2026-04-25 20:22 39.08527 23.55310 2509 ft 178 kts 208°
2026-04-25 20:23 39.07462 23.54576 2348 ft 169 kts 208°
2026-04-25 20:23 39.06455 23.53881 2239 ft 159 kts 208°
2026-04-25 20:23 39.05491 23.53215 2172 ft 164 kts 208°
2026-04-25 20:23 39.04468 23.52507 2107 ft 165 kts 208°
2026-04-25 20:24 39.03471 23.51818 2051 ft 165 kts 208°
2026-04-25 20:24 39.02510 23.51024 2035 ft 165 kts 225°
2026-04-25 20:24 39.01943 23.49764 2021 ft 165 kts 256°
2026-04-25 20:24 39.01959 23.48308 1965 ft 164 kts 288°
2026-04-25 20:25 39.02560 23.47091 1910 ft 163 kts 320°
2026-04-25 20:25 39.03566 23.46466 1878 ft 162 kts 348°
2026-04-25 20:25 39.04688 23.46270 1811 ft 163 kts 355°
2026-04-25 20:25 39.05819 23.46180 1739 ft 163 kts 358°
2026-04-25 20:26 39.06927 23.46149 1653 ft 160 kts
2026-04-25 20:26 39.08051 23.46225 1682 ft 163 kts
2026-04-25 20:26 39.09173 23.46435 1647 ft 163 kts 13°
2026-04-25 20:26 39.10239 23.46835 1504 ft 154 kts 20°
2026-04-25 20:27 39.11216 23.47339 1333 ft 147 kts 22°
2026-04-25 20:27 39.12116 23.47839 1162 ft 139 kts 21°
2026-04-25 20:27 39.13018 23.48276 961 ft 138 kts 19°
2026-04-25 20:27 39.13925 23.48664 812 ft 137 kts 18°
2026-04-25 20:28 39.14831 23.49069 594 ft 138 kts 20°
2026-04-25 20:28 39.15731 23.49474 331 ft 136 kts 19°
2026-04-25 20:28 39.16620 23.49869 122 ft 135 kts 20°
2026-04-25 20:28 39.17497 23.50270 42 ft 125 kts 18°
2026-04-25 20:29 39.17920 23.50459 43 ft 68 kts 20°
2026-04-25 20:29 39.18178 23.50576 53 ft 31 kts 19°
2026-04-25 20:29 39.18361 23.50658 59 ft 22 kts 19°
2026-04-25 20:29 39.18478 23.50727 58 ft 15 kts 48°
2026-04-25 20:30 39.18513 23.50718 62 ft 6 kts 265°
2026-04-25 20:30 39.18475 23.50702 59 ft 7 kts 188°
2026-04-25 20:30 39.18416 23.50681 60 ft 11 kts 197°
2026-04-25 20:30 39.18329 23.50644 56 ft 15 kts 199°
2026-04-25 20:31 39.18219 23.50595 54 ft 19 kts 199°
2026-04-25 20:31 39.18078 23.50531 50 ft 20 kts 199°
2026-04-25 20:31 39.17959 23.50472 46 ft 16 kts 218°
2026-04-25 20:31 39.17935 23.50377 43 ft 7 kts 291°
2026-04-25 20:32 39.17955 23.50363 42 ft 0 kts 342°
2026-04-25 20:32 39.17965 23.50351 41 ft 2 kts 311°
2026-04-25 20:32 39.17973 23.50331 41 ft 5 kts 295°
2026-04-25 20:33 39.17984 23.50292 39 ft 4 kts 289°
2026-04-25 20:33 39.17988 23.50278 40 ft 0 kts 288°